Regional Weather Roundup
Issued by NWS Albany, NY

Home | Current Version | Previous Version | Text Only | Print | Product List | Glossary On
Versions: 1 2 3 4 5 6 7 8 9 10 11 12 13 14 15 16 17 18 19 20 21 22 23 24 25 26 27
000
ASUS41 KALY 070110
RWRALY

NEW YORK STATE HOURLY WEATHER ROUNDUP
NATIONAL WEATHER SERVICE ALBANY NY
800 PM EST TUE DEC 06 2016

NOTE: "FAIR" INDICATES FEW OR NO CLOUDS BELOW 12,000 FEET WITH NO
SIGNIFICANT WEATHER AND/OR NO OBSTRUCTIONS TO VISIBILITY.

NYZ032-033-038>043-046>054-057>066-NYZ062>081-082-084-070200-
EAST


CITY           SKY/WX    TMP DP  RH WIND       PRES   REMARKS
ALBANY         CLOUDY    35  29  78 N5        30.00R WCI  31
GLENS FALLS    MOCLDY    33  27  78 CALM      30.00R
POUGHKEEPSIE   LGT RAIN  38  33  82 SE9       29.98S WCI  31
NEWBURGH       LGT RAIN  36  34  93 SE12      29.99S WCI  27
MONTGOMERY     LGT RAIN  35  33  92 E3        29.97F
WHITE PLAINS   LGT RAIN  39  35  86 NE7       29.95F WCI  34
ISLIP          LGT RAIN  41  35  79 NE9       29.94F
NEW YORK CITY  LGT RAIN  43  36  76 NE15      29.95F
CENTRAL PARK   LGT RAIN  40  36  86 E9        29.96F FOG     WCI  34
$$

NYZ005>009-017-018-044>046-055-056-070200-
CENTRAL


CITY           SKY/WX    TMP DP  RH WIND       PRES   REMARKS
FULTON         CLOUDY    39  31  72 VRB5      29.88F
SYRACUSE       CLOUDY    38  31  76 E7        29.89F WCI  33
ROME           CLOUDY    36  30  79 E9        29.94F WCI  29
ELMIRA         LGT SNOW  34  31  88 VRB7      29.85F FOG     WCI  28
BINGHAMTON     HVY SNOW  31  31 100 SE10      29.86F VSB 1/4 WCI  22
MONTICELLO     CLOUDY    32  30  93 E6        29.93F VSB 1   WCI  26
$$

NYZ026>034-041>043-087-070200-
NORTH


CITY           SKY/WX    TMP DP  RH WIND       PRES   REMARKS
WATERTOWN      CLOUDY    35  30  82 E8        29.90F WCI  29
FORT DRUM      NOT AVBL
OGDENSBURG     FAIR      32  29  90 E8        29.95S WCI  25
MASSENA        MOCLDY    31  24  75 NE15      29.99S WCI  20
SARANAC LAKE   MOCLDY    26  23  88 E6        29.90S WCI  19
PLATTSBURGH    CLOUDY    30  25  81 NW6       30.00F WCI  24
$$

NYZ001>004-010>016-019>021-085-070200-
WEST


CITY           SKY/WX    TMP DP  RH WIND       PRES   REMARKS
NIAGARA FALLS  LGT SNOW  35  31  85 E8        29.78S FOG     WCI  29
BUFFALO        LGT SNOW  34  32  92 E8        29.77F FOG     WCI  27
DUNKIRK        MIX PCPN  35  34  96 CALM      29.76R
JAMESTOWN      CLOUDY    34  30  86 S12       29.71S WCI  25
WELLSVILLE     FLURRIES  34  31  88 SE9       29.75F WCI  27
ROCHESTER      LGT SNOW  34  32  92 SE9       29.82F FOG     WCI  27
PENN YAN       LGT SNOW  34  30  86 SE7       29.84F FOG     WCI  28
$$

             KEY
       WCI = WIND CHILL INDEX
       VSB = VISIBILITY
       HX  = HEAT INDEX
$$




USA.gov is the U.S. government's official web portal to all federal, state and local government web resources and services.